Ahoskie, NC

12:51 AM EST on December 11, 2019 (GMT -0500)
Tri County

Weather History for KASJ - November, 2019

Change the Weather History Date:

Saturday, November 16, 2019

  Actual Average (KEMV) Record (KEMV)
Temperature  
Mean Temperature 44 °F -  
Max Temperature 46 °F 63 °F 83 °F (1993)
Min Temperature 42 °F 37 °F 24 °F (2014)
Degree Days  
Heating Degree Days 22    
Moisture  
Dew Point 37 °F    
Average Humidity 76    
Maximum Humidity 92    
Minimum Humidity 62    
Precipitation  
Precipitation 0.01 in - - ()
Sea Level Pressure  
Sea Level Pressure 30.13 in    
Wind  
Wind Speed 13 mph ()    
Max Wind Speed 24 mph    
Max Gust Speed 32 mph    
Visibility 10.0 miles    
Events Rain    
Averages and records for this station are not official NWS values.
T = Trace of Precipitation, MM = Missing Value Source: Averaged Metar Reports

Daily Weather History Graph

Daily Weather History Graph

Search for Another Location

Airport or City:

Astronomy

Nov. 16, 2019 Rise Set
Actual Time 6:46 AM EST 4:59 PM EST
Civil Twilight 6:19 AM EST 5:27 PM EST
Nautical Twilight 5:47 AM EST 5:58 PM EST
Astronomical Twilight 5:17 AM EST 6:28 PM EST
Moon 8:33 PM EST (11/16) 10:35 AM EST (11/16)
Length of Visible Light 11h 08m
Length of Day
10h 13m
Waning Gibbous, 82% of the Moon is Illuminated
Nov 16
Waning Gibbous
Nov 19
Last Quarter
Nov 26
New
Dec 4
First Quarter
Dec 12
Full

Hourly Weather History & Observations

Time (EST) Temp. Windchill Dew Point Humidity Pressure Visibility Wind Dir Wind Speed Gust Speed Precip Events Conditions
12:35 AM 43.3 °F 37.2 °F 41.2 °F 92% 30.10 in 10.0 mi North 11.5 mph 17.3 mph N/A   Overcast
12:55 AM 43.7 °F 39.1 °F 40.3 °F 88% 30.10 in 10.0 mi NNE 8.1 mph - N/A   Overcast
1:35 AM 44.6 °F 38.8 °F 39.2 °F 81% 30.08 in 10.0 mi North 11.5 mph - N/A   Overcast
1:55 AM 45.0 °F 38.9 °F 38.3 °F 77% 30.08 in 10.0 mi North 12.7 mph 19.6 mph N/A   Overcast
2:15 AM 45.5 °F 40.3 °F 37.9 °F 75% 30.07 in 10.0 mi North 10.4 mph - N/A   Overcast
2:35 AM 45.5 °F 39.2 °F 37.6 °F 74% 30.07 in 10.0 mi North 13.8 mph 18.4 mph N/A   Overcast
3:15 AM 45.7 °F 40.2 °F 36.7 °F 71% 30.07 in 10.0 mi North 11.5 mph 18.4 mph N/A   Overcast
3:35 AM 45.7 °F 39.8 °F 36.7 °F 71% 30.07 in 10.0 mi NNE 12.7 mph 21.9 mph N/A   Overcast
3:55 AM 45.9 °F 40.8 °F 36.0 °F 68% 30.07 in 10.0 mi North 10.4 mph 20.7 mph N/A   Overcast
4:55 AM 45.5 °F 39.2 °F 35.2 °F 67% 30.09 in 10.0 mi North 13.8 mph 17.3 mph N/A   Overcast
5:15 AM 45.5 °F 39.2 °F 34.3 °F 65% 30.09 in 10.0 mi North 13.8 mph 20.7 mph N/A   Overcast
5:55 AM 45.5 °F 38.9 °F 33.4 °F 63% 30.11 in 10.0 mi NNE 15.0 mph 20.7 mph N/A   Overcast
6:15 AM 45.5 °F 39.2 °F 33.1 °F 62% 30.12 in 10.0 mi NNE 13.8 mph 26.5 mph N/A   Overcast
6:35 AM 44.8 °F 38.3 °F 33.4 °F 64% 30.13 in 10.0 mi NNE 13.8 mph 23.0 mph N/A   Overcast
6:55 AM 44.6 °F 36.9 °F 33.4 °F 65% 30.14 in 10.0 mi NNE 18.4 mph 27.6 mph N/A   Overcast
7:15 AM 43.9 °F 37.2 °F 33.6 °F 67% 30.14 in 10.0 mi North 13.8 mph 23.0 mph 0.01 in   Overcast
7:35 AM 43.7 °F 36.3 °F 33.6 °F 68% 30.15 in 10.0 mi NNE 16.1 mph 24.2 mph 0.01 in   Overcast
7:55 AM 43.3 °F 36.1 °F 33.8 °F 69% 30.16 in 10.0 mi North 15.0 mph 20.7 mph 0.01 in   Overcast
8:35 AM 43.2 °F 35.9 °F 33.8 °F 70% 30.16 in 10.0 mi North 15.0 mph 26.5 mph N/A   Overcast
8:55 AM 43.5 °F 36.7 °F 33.8 °F 69% 30.16 in 10.0 mi North 13.8 mph 26.5 mph N/A   Overcast
9:15 AM 43.7 °F 36.6 °F 33.8 °F 68% 30.16 in 10.0 mi North 15.0 mph 25.3 mph N/A   Overcast
9:35 AM 43.9 °F 37.9 °F 34.0 °F 68% 30.17 in 10.0 mi North 11.5 mph 23.0 mph N/A   Overcast
9:55 AM 43.7 °F 36.3 °F 34.0 °F 69% 30.18 in 10.0 mi NNE 16.1 mph 26.5 mph N/A   Overcast
10:15 AM 43.9 °F 36.8 °F 34.7 °F 70% 30.18 in 10.0 mi North 15.0 mph 27.6 mph N/A   Overcast
10:35 AM 44.1 °F 36.5 °F 35.4 °F 72% 30.19 in 10.0 mi North 17.3 mph 23.0 mph N/A   Overcast
11:15 AM 45.0 °F 38.5 °F 36.3 °F 72% 30.18 in 10.0 mi North 13.8 mph 24.2 mph N/A   Overcast
11:55 AM 45.5 °F 38.9 °F 36.7 °F 71% 30.17 in 10.0 mi North 15.0 mph 24.2 mph N/A   Overcast
12:35 PM 45.9 °F 38.5 °F 37.2 °F 72% 30.16 in 10.0 mi North 18.4 mph 26.5 mph N/A   Overcast
12:55 PM 45.9 °F 39.7 °F 37.4 °F 72% 30.15 in 10.0 mi North 13.8 mph 21.9 mph N/A   Overcast
1:15 PM 45.9 °F 39.4 °F 37.6 °F 73% 30.15 in 10.0 mi North 15.0 mph 24.2 mph N/A   Overcast
1:35 PM 45.9 °F 39.1 °F 37.8 °F 73% 30.14 in 10.0 mi North 16.1 mph 28.8 mph N/A   Overcast
1:55 PM 45.7 °F 37.4 °F 37.4 °F 73% 30.13 in 10.0 mi North 23.0 mph 31.1 mph N/A   Overcast
2:15 PM 45.5 °F 36.9 °F 37.4 °F 73% 30.13 in 10.0 mi North 24.2 mph 32.2 mph N/A   Overcast
2:35 PM 45.0 °F 37.9 °F 37.9 °F 76% 30.13 in 10.0 mi North 16.1 mph 28.8 mph N/A   Light Drizzle
2:55 PM 44.4 °F 37.5 °F 38.8 °F 81% 30.13 in 10.0 mi North 15.0 mph 25.3 mph N/A Rain Light Rain
3:15 PM 44.1 °F 36.5 °F 38.8 °F 82% 30.14 in 10.0 mi North 17.3 mph 26.5 mph N/A Rain Light Rain
3:35 PM 43.7 °F 36.3 °F 39.4 °F 85% 30.16 in 10.0 mi North 16.1 mph 21.9 mph N/A   Drizzle
3:55 PM 43.7 °F 36.9 °F 39.2 °F 84% 30.16 in 10.0 mi North 13.8 mph 19.6 mph N/A   Light Drizzle
4:15 PM 43.7 °F 37.3 °F 39.2 °F 84% 30.17 in 10.0 mi North 12.7 mph - N/A   Light Drizzle
4:35 PM 43.9 °F 36.5 °F 39.4 °F 84% 30.16 in 10.0 mi North 16.1 mph 19.6 mph N/A   Light Drizzle
4:55 PM 44.1 °F 37.1 °F 39.0 °F 82% 30.16 in 10.0 mi North 15.0 mph 26.5 mph N/A   Light Drizzle
5:15 PM 43.9 °F 36.8 °F 38.3 °F 81% 30.16 in 10.0 mi North 15.0 mph 23.0 mph N/A   Overcast
5:35 PM 43.7 °F 35.7 °F 38.3 °F 81% 30.15 in 10.0 mi North 18.4 mph 23.0 mph N/A   Overcast
5:55 PM 43.7 °F 36.3 °F 37.6 °F 79% 30.15 in 10.0 mi North 16.1 mph 24.2 mph N/A   Overcast
6:15 PM 43.2 °F 35.0 °F 37.4 °F 80% 30.14 in 10.0 mi North 18.4 mph 25.3 mph N/A   Overcast
6:35 PM 43.0 °F 36.4 °F 36.7 °F 78% 30.14 in 10.0 mi North 12.7 mph 20.7 mph N/A   Overcast
6:55 PM 43.5 °F 35.5 °F 36.5 °F 76% 30.14 in 10.0 mi North 18.4 mph 26.5 mph N/A   Overcast
7:15 PM 43.7 °F 35.4 °F 36.5 °F 76% 30.14 in 10.0 mi NNE 19.6 mph 27.6 mph N/A   Overcast
7:35 PM 43.9 °F 36.8 °F 36.5 °F 75% 30.14 in 10.0 mi North 15.0 mph 24.2 mph N/A   Overcast
7:55 PM 44.1 °F 36.5 °F 36.5 °F 75% 30.13 in 10.0 mi North 17.3 mph 25.3 mph N/A   Overcast
8:15 PM 44.1 °F 36.8 °F 36.7 °F 75% 30.14 in 10.0 mi North 16.1 mph 23.0 mph N/A   Overcast
8:35 PM 43.9 °F 36.8 °F 36.9 °F 76% 30.14 in 10.0 mi North 15.0 mph 23.0 mph N/A   Overcast
8:55 PM 43.7 °F 36.3 °F 36.9 °F 77% 30.13 in 10.0 mi North 16.1 mph 23.0 mph N/A   Overcast
9:15 PM 43.7 °F 36.0 °F 37.4 °F 78% 30.14 in 10.0 mi North 17.3 mph 21.9 mph N/A   Overcast
9:35 PM 43.3 °F 36.1 °F 37.6 °F 80% 30.14 in 10.0 mi North 15.0 mph 25.3 mph N/A   Overcast
9:55 PM 43.3 °F 36.1 °F 37.8 °F 81% 30.14 in 10.0 mi North 15.0 mph 25.3 mph N/A   Overcast
10:15 PM 43.2 °F 34.5 °F 37.9 °F 82% 30.14 in 10.0 mi North 20.7 mph 25.3 mph N/A   Overcast
10:35 PM 43.2 °F 36.6 °F 38.3 °F 83% 30.14 in 10.0 mi North 12.7 mph 19.6 mph N/A   Overcast
10:55 PM 43.0 °F 36.4 °F 38.3 °F 84% 30.14 in 10.0 mi North 12.7 mph - N/A   Overcast
11:15 PM 43.0 °F 35.4 °F 38.5 °F 84% 30.13 in 10.0 mi North 16.1 mph 24.2 mph N/A   Overcast
11:35 PM 42.8 °F 35.1 °F 38.5 °F 85% 30.12 in 10.0 mi North 16.1 mph 20.7 mph N/A   Overcast
11:55 PM 42.3 °F 35.9 °F 38.3 °F 86% 30.12 in 10.0 mi North 11.5 mph 19.6 mph N/A   Overcast